Location: Ajisawe
(8.4333°N, 4.3833°E)
Time: 21:48:48
(UTC+00:00)

Vanguard 1 Rocket - Pass Details

Date: 25 April 2021
Orbit: 652 x 4224 km, 34.3° (Epoch: 10 May)

Event Time Altitude Azimuth Distance (km) Brightness Sun altitude
Exits shadow 03:38:55 - 208° (SSW) 7,876 11.8 -27.0°
Reaches altitude 10° 03:45:05 10° 196° (SSW) 7,391 11.7 -25.5°
Maximum altitude 04:00:57 19° 158° (SSE) 6,469 11.7 -21.8°
Drops below altitude 10° 04:14:36 10° 120° (ESE) 6,457 12.3 -18.6°
Sets 04:21:27 0° 104° (ESE) 6,876 12.9 -17.0°
